^^
Station Historical Data
Daily Summary for August 27, 2021 Units:  English    Metric   Both
Daily Weekly Monthly Yearly
  High: Low: Average:
Temperature: 76.9 °F 70.4 °F 72.8 °F
Dew Point: 72.3 °F 65.5 °F 68 °F
Humidity: 90% 80% 85%
Wind Speed: 4mph 0mph 1.8mph
Wind Gust: 8mph - -
Wind- - ENE
Pressure: 30.11 in 30.03 in -
Precipitation: 0.10 in    
 
 
Tabular Data for August 27, 2021
Time Temperature Dew Point Pressure Wind Wind Speed Wind Gust Humidity Rainfall Rate (Hourly) solar
00:00 72.3 °F 67.5 °F 30.08 in NE 2 mph 2 mph 85% 0.00 in 0 W/m2
00:05 72.3 °F 67.5 °F 30.08 in ENE 2 mph 2 mph 85% 0.00 in 0 W/m2
00:10 72.2 °F 67.4 °F 30.08 in NE 2 mph 2 mph 85% 0.00 in 0 W/m2
00:15 72.1 °F 67 °F 30.08 in East 2 mph 2 mph 84% 0.00 in 0 W/m2
00:20 72 °F 66.6 °F 30.08 in NE 2 mph 2 mph 83% 0.00 in 0 W/m2
00:25 71.9 °F 66.8 °F 30.09 in East 2 mph 2 mph 84% 0.00 in 0 W/m2
00:30 71.9 °F 66.8 °F 30.08 in ENE 2 mph 3 mph 84% 0.00 in 0 W/m2
00:35 71.9 °F 66.8 °F 30.09 in NNE 2 mph 3 mph 84% 0.00 in 0 W/m2
00:40 71.8 °F 66.7 °F 30.10 in NE 2 mph 5 mph 84% 0.00 in 0 W/m2
00:45 71.8 °F 67 °F 30.10 in ENE 2 mph 5 mph 85% 0.00 in 0 W/m2
00:50 71.8 °F 67 °F 30.10 in SE 2 mph 2 mph 85% 0.00 in 0 W/m2
00:55 71.9 °F 67.1 °F 30.10 in NE 2 mph 2 mph 85% 0.00 in 0 W/m2
01:00 71.8 °F 67 °F 30.10 in NE 1 mph 1 mph 85% 0.00 in 0 W/m2
01:05 71.8 °F 67 °F 30.10 in ENE 2 mph 3 mph 85% 0.00 in 0 W/m2
01:10 71.8 °F 67 °F 30.10 in East 2 mph 2 mph 85% 0.00 in 0 W/m2
01:15 71.8 °F 67 °F 30.09 in ENE 2 mph 3 mph 85% 0.00 in 0 W/m2
01:20 71.8 °F 67 °F 30.09 in ESE 2 mph 2 mph 85% 0.00 in 0 W/m2
01:25 71.8 °F 67 °F 30.09 in ENE 2 mph 2 mph 85% 0.00 in 0 W/m2
01:30 71.8 °F 67 °F 30.09 in ESE 1 mph 1 mph 85% 0.00 in 0 W/m2
01:35 71.7 °F 66.9 °F 30.09 in ENE 2 mph 2 mph 85% 0.00 in 0 W/m2
01:40 71.6 °F 66.8 °F 30.09 in East 2 mph 2 mph 85% 0.00 in 0 W/m2
01:45 71.6 °F 66.8 °F 30.09 in East 2 mph 2 mph 85% 0.00 in 0 W/m2
01:50 71.5 °F 66.8 °F 30.09 in East 1 mph 1 mph 85% 0.00 in 0 W/m2
01:55 71.4 °F 66.7 °F 30.10 in North 1 mph 1 mph 85% 0.00 in 0 W/m2
02:00 71.4 °F 66.7 °F 30.10 in NE 1 mph 1 mph 85% 0.00 in 0 W/m2
02:05 71.3 °F 66.6 °F 30.10 in Calm   1 mph 85% 0.00 in 0 W/m2
02:10 71.2 °F 66.5 °F 30.09 in Calm   1 mph 85% 0.00 in 0 W/m2
02:15 71.2 °F 66.5 °F 30.10 in ENE 1 mph 1 mph 85% 0.00 in 0 W/m2
02:20 71 °F 66.3 °F 30.10 in East 1 mph 1 mph 85% 0.00 in 0 W/m2
02:25 71 °F 66.3 °F 30.09 in ESE 1 mph 1 mph 85% 0.00 in 0 W/m2
02:30 70.9 °F 66.2 °F 30.09 in ESE 1 mph 1 mph 85% 0.00 in 0 W/m2
02:35 70.8 °F 66.4 °F 30.09 in East 1 mph 1 mph 86% 0.00 in 0 W/m2
02:40 70.8 °F 66.4 °F 30.09 in ENE 1 mph 1 mph 86% 0.00 in 0 W/m2
02:45 70.8 °F 66.4 °F 30.09 in ESE 1 mph 2 mph 86% 0.00 in 0 W/m2
02:50 70.8 °F 66.7 °F 30.09 in East 1 mph 3 mph 87% 0.00 in 0 W/m2
02:55 70.8 °F 66.7 °F 30.08 in ESE 1 mph 3 mph 87% 0.00 in 0 W/m2
03:00 70.8 °F 66.7 °F 30.08 in ENE 1 mph 2 mph 87% 0.00 in 0 W/m2
03:05 70.8 °F 67.1 °F 30.08 in ENE 1 mph 2 mph 88% 0.00 in 0 W/m2
03:10 70.8 °F 67.1 °F 30.08 in ENE 1 mph 3 mph 88% 0.00 in 0 W/m2
03:15 70.8 °F 67.1 °F 30.08 in East 1 mph 3 mph 88% 0.00 in 0 W/m2
03:20 70.8 °F 67.1 °F 30.08 in East 1 mph 1 mph 88% 0.00 in 0 W/m2
03:25 70.7 °F 67 °F 30.08 in East 1 mph 2 mph 88% 0.00 in 0 W/m2
03:30 70.6 °F 66.5 °F 30.08 in ESE 1 mph 2 mph 87% 0.00 in 0 W/m2
03:35 70.6 °F 66.5 °F 30.08 in East 1 mph 2 mph 87% 0.00 in 0 W/m2
03:40 70.5 °F 66.4 °F 30.08 in North 1 mph 1 mph 87% 0.00 in 0 W/m2
03:45 70.4 °F 66.3 °F 30.08 in East 1 mph 1 mph 87% 0.00 in 0 W/m2
03:50 70.4 °F 66.3 °F 30.08 in ENE 1 mph 1 mph 87% 0.00 in 0 W/m2
03:55 70.4 °F 66.3 °F 30.08 in East 1 mph 1 mph 87% 0.00 in 0 W/m2
04:00 70.4 °F 66.7 °F 30.08 in NE 1 mph 1 mph 88% 0.00 in 0 W/m2
04:05 70.4 °F 66.7 °F 30.08 in East 1 mph 1 mph 88% 0.00 in 0 W/m2
04:10 70.4 °F 66.7 °F 30.08 in East 1 mph 2 mph 88% 0.00 in 0 W/m2
04:15 70.5 °F 66.8 °F 30.08 in NE 2 mph 2 mph 88% 0.00 in 0 W/m2
04:20 70.6 °F 67.2 °F 30.07 in East 2 mph 2 mph 89% 0.00 in 0 W/m2
04:25 70.6 °F 67.2 °F 30.07 in SE 2 mph 2 mph 89% 0.00 in 0 W/m2
04:30 70.6 °F 67.2 °F 30.07 in NNE 2 mph 8 mph 89% 0.00 in 0 W/m2
04:35 70.7 °F 67 °F 30.07 in East 2 mph 8 mph 88% 0.00 in 0 W/m2
04:40 70.8 °F 67.1 °F 30.07 in NE 2 mph 2 mph 88% 0.00 in 0 W/m2
04:45 70.8 °F 67.4 °F 30.07 in SSW 2 mph 2 mph 89% 0.00 in 0 W/m2
04:50 71 °F 67.3 °F 30.07 in East 2 mph 2 mph 88% 0.00 in 0 W/m2
04:55 71 °F 67.3 °F 30.07 in NNW 2 mph 2 mph 88% 0.00 in 0 W/m2
05:00 71 °F 67.3 °F 30.07 in ENE 2 mph 2 mph 88% 0.00 in 0 W/m2
05:05 71.1 °F 67.4 °F 30.06 in NE 2 mph 4 mph 88% 0.00 in 0 W/m2
05:10 71.2 °F 67.5 °F 30.06 in NE 2 mph 2 mph 88% 0.00 in 0 W/m2
05:15 71.2 °F 67.1 °F 30.06 in NNE 2 mph 2 mph 87% 0.00 in 0 W/m2
05:20 71.2 °F 67.1 °F 30.06 in ENE 2 mph 2 mph 87% 0.00 in 0 W/m2
05:25 71.3 °F 67.2 °F 30.06 in NE 2 mph 2 mph 87% 0.00 in 0 W/m2
05:30 71.3 °F 67.6 °F 30.06 in East 2 mph 2 mph 88% 0.00 in 0 W/m2
05:35 71.3 °F 67.2 °F 30.07 in NE 3 mph 3 mph 87% 0.00 in 0 W/m2
05:40 71.4 °F 67.7 °F 30.06 in ENE 2 mph 2 mph 88% 0.00 in 0 W/m2
05:45 71.4 °F 67.7 °F 30.06 in NE 2 mph 2 mph 88% 0.00 in 0 W/m2
05:50 71.5 °F 67.8 °F 30.06 in ENE 2 mph 7 mph 88% 0.00 in 0 W/m2
05:55 71.5 °F 67.8 °F 30.06 in East 2 mph 7 mph 88% 0.00 in 0 W/m2
06:00 71.5 °F 67.4 °F 30.06 in North 2 mph 2 mph 87% 0.00 in 0 W/m2
06:05 71.5 °F 67.4 °F 30.06 in East 1 mph 3 mph 87% 0.00 in 0 W/m2
06:10 71.5 °F 67.4 °F 30.06 in ENE 2 mph 3 mph 87% 0.00 in 0 W/m2
06:15 71.4 °F 67.3 °F 30.06 in East 3 mph 3 mph 87% 0.00 in 0 W/m2
06:20 71.3 °F 66.9 °F 30.05 in East 3 mph 3 mph 86% 0.00 in 0 W/m2
06:25 71.4 °F 67 °F 30.06 in NE 3 mph 3 mph 86% 0.00 in 0 W/m2
06:30 71.3 °F 66.6 °F 30.06 in ENE 3 mph 3 mph 85% 0.00 in 0 W/m2
06:35 71.2 °F 66.5 °F 30.06 in NE 3 mph 3 mph 85% 0.00 in 0 W/m2
06:40 71.1 °F 66 °F 30.06 in East 3 mph 3 mph 84% 0.00 in 0 W/m2
06:45 71.1 °F 66 °F 30.06 in ENE 3 mph 4 mph 84% 0.00 in 0 W/m2
06:50 71 °F 65.9 °F 30.06 in East 2 mph 2 mph 84% 0.00 in 5 W/m2
06:55 71 °F 65.6 °F 30.07 in East 2 mph 5 mph 83% 0.00 in 7 W/m2
07:00 71 °F 65.6 °F 30.07 in NE 2 mph 2 mph 83% 0.00 in 11 W/m2
07:05 70.9 °F 65.5 °F 30.07 in ENE 2 mph 3 mph 83% 0.00 in 12 W/m2
07:10 70.9 °F 65.5 °F 30.07 in East 3 mph 3 mph 83% 0.00 in 14 W/m2
07:15 70.9 °F 65.5 °F 30.07 in ESE 3 mph 4 mph 83% 0.00 in 18 W/m2
07:20 71 °F 65.6 °F 30.07 in NE 3 mph 3 mph 83% 0.00 in 23 W/m2
07:25 71 °F 65.6 °F 30.07 in SE 3 mph 3 mph 83% 0.00 in 28 W/m2
07:30 71 °F 65.6 °F 30.06 in SE 3 mph 3 mph 83% 0.00 in 35 W/m2
07:35 71 °F 65.6 °F 30.06 in East 3 mph 3 mph 83% 0.00 in 46 W/m2
07:40 71 °F 65.6 °F 30.06 in NE 2 mph 2 mph 83% 0.00 in 60 W/m2
07:45 71 °F 65.6 °F 30.06 in SE 3 mph 3 mph 83% 0.00 in 76 W/m2
07:50 71.2 °F 65.8 °F 30.06 in ESE 3 mph 3 mph 83% 0.00 in 77 W/m2
07:55 71.3 °F 66.2 °F 30.06 in East 3 mph 4 mph 84% 0.00 in 90 W/m2
08:00 71.4 °F 66 °F 30.06 in ENE 3 mph 3 mph 83% 0.00 in 91 W/m2
08:05 71.5 °F 66.1 °F 30.06 in SE 4 mph 4 mph 83% 0.00 in 88 W/m2
08:10 71.6 °F 66.5 °F 30.07 in ESE 3 mph 3 mph 84% 0.00 in 76 W/m2
08:15 71.7 °F 66.9 °F 30.07 in ESE 3 mph 6 mph 85% 0.00 in 65 W/m2
08:20 71.9 °F 66.8 °F 30.07 in NNE 3 mph 3 mph 84% 0.00 in 56 W/m2
08:25 71.9 °F 66.8 °F 30.07 in NE 3 mph 3 mph 84% 0.00 in 39 W/m2
08:30 72.1 °F 67.3 °F 30.07 in ESE 3 mph 5 mph 85% 0.00 in 25 W/m2
08:35 72.2 °F 67.4 °F 30.07 in NE 2 mph 5 mph 85% 0.00 in 21 W/m2
08:40 72.3 °F 67.5 °F 30.08 in SE 2 mph 2 mph 85% 0.00 in 32 W/m2
08:45 72.4 °F 67.6 °F 30.08 in ESE 2 mph 2 mph 85% 0.00 in 47 W/m2
08:50 72.6 °F 67.5 °F 30.08 in ESE 2 mph 2 mph 84% 0.00 in 53 W/m2
08:55 72.7 °F 67.6 °F 30.08 in ESE 1 mph 2 mph 84% 0.00 in 39 W/m2
09:00 72.7 °F 67.2 °F 30.08 in East 1 mph 1 mph 83% 0.00 in 35 W/m2
09:05 72.6 °F 67.1 °F 30.08 in ESE 1 mph 2 mph 83% 0.00 in 26 W/m2
09:10 72.6 °F 67.1 °F 30.09 in East 1 mph 1 mph 83% 0.00 in 28 W/m2
09:15 72.6 °F 67.1 °F 30.09 in East 1 mph 1 mph 83% 0.00 in 39 W/m2
09:20 72.7 °F 67.2 °F 30.09 in East 1 mph 3 mph 83% 0.00 in 42 W/m2
09:25 72.7 °F 67.2 °F 30.09 in NE 1 mph 3 mph 83% 0.00 in 32 W/m2
09:30 72.7 °F 67.2 °F 30.10 in NE 1 mph 1 mph 83% 0.00 in 21 W/m2
09:35 72.7 °F 67.2 °F 30.10 in Calm   1 mph 83% 0.00 in 19 W/m2
09:40 72.7 °F 67.2 °F 30.10 in Calm   1 mph 83% 0.00 in 32 W/m2
09:45 72.6 °F 67.5 °F 30.10 in NE 1 mph 1 mph 84% 0.00 in 37 W/m2
09:50 72.6 °F 67.5 °F 30.10 in ESE 1 mph 2 mph 84% 0.00 in 35 W/m2
09:55 72.5 °F 67.7 °F 30.10 in NNE 1 mph 2 mph 85% 0.00 in 40 W/m2
10:00 72.4 °F 67.3 °F 30.10 in Calm   1 mph 84% 0.00 in 51 W/m2
10:05 72.2 °F 67.1 °F 30.10 in SE 1 mph 2 mph 84% 0.00 in 54 W/m2
10:10 72.2 °F 67.1 °F 30.09 in East 1 mph 1 mph 84% 0.00 in 49 W/m2
10:15 72.2 °F 67.4 °F 30.09 in ENE 1 mph 2 mph 85% 0.04 in 51 W/m2
10:20 72.2 °F 67.4 °F 30.09 in Calm     85% 0.04 in 67 W/m2
10:25 72.2 °F 67.4 °F 30.09 in North 1 mph 1 mph 85% 0.04 in 100 W/m2
10:30 72.2 °F 67.8 °F 30.10 in Calm   1 mph 86% 0.04 in 137 W/m2
10:35 72.2 °F 67.8 °F 30.10 in North 1 mph 1 mph 86% 0.00 in 144 W/m2
10:40 72.3 °F 67.9 °F 30.10 in NE 1 mph 1 mph 86% 0.00 in 146 W/m2
10:45 72.3 °F 68.2 °F 30.10 in North 1 mph 1 mph 87% 0.00 in 162 W/m2
10:50 72.4 °F 68.3 °F 30.10 in NE 1 mph 1 mph 87% 0.00 in 192 W/m2
10:55 72.5 °F 68.7 °F 30.10 in NE 1 mph 1 mph 88% 0.00 in 200 W/m2
11:00 72.5 °F 68.4 °F 30.10 in ENE 1 mph 1 mph 87% 0.00 in 237 W/m2
11:05 72.4 °F 68.3 °F 30.10 in NE 1 mph 1 mph 87% 0.00 in 250 W/m2
11:10 72.4 °F 68.3 °F 30.09 in East 1 mph 1 mph 87% 0.00 in 276 W/m2
11:15 72.5 °F 68.4 °F 30.10 in ENE 1 mph 1 mph 87% 0.00 in 250 W/m2
11:20 72.6 °F 68.5 °F 30.10 in NE 1 mph 1 mph 87% 0.00 in 221 W/m2
11:25 72.6 °F 68.2 °F 30.10 in ENE 1 mph 1 mph 86% 0.00 in 221 W/m2
11:30 72.7 °F 68.3 °F 30.10 in ENE 1 mph 2 mph 86% 0.00 in 220 W/m2
11:35 72.8 °F 68.4 °F 30.10 in NE 2 mph 2 mph 86% 0.00 in 237 W/m2
11:40 73 °F 68.6 °F 30.10 in ENE 2 mph 2 mph 86% 0.00 in 221 W/m2
11:45 73 °F 68.6 °F 30.10 in NE 2 mph 2 mph 86% 0.00 in 209 W/m2
11:50 73.1 °F 68.7 °F 30.10 in ENE 2 mph 4 mph 86% 0.00 in 253 W/m2
11:55 73.3 °F 69.2 °F 30.11 in ENE 2 mph 4 mph 87% 0.00 in 232 W/m2
12:00 73.4 °F 69 °F 30.10 in NE 2 mph 3 mph 86% 0.00 in 214 W/m2
12:05 73.5 °F 69.1 °F 30.10 in ENE 2 mph 3 mph 86% 0.00 in 223 W/m2
12:10 73.5 °F 69.1 °F 30.10 in ENE 3 mph 3 mph 86% 0.00 in 195 W/m2
12:15 73.6 °F 68.8 °F 30.10 in East 2 mph 4 mph 85% 0.00 in 376 W/m2
12:20 73.7 °F 69.2 °F 30.10 in ENE 2 mph 4 mph 86% 0.00 in 501 W/m2
12:25 73.9 °F 69.1 °F 30.10 in East 3 mph 4 mph 85% 0.00 in 441 W/m2
12:30 74 °F 69.2 °F 30.10 in ESE 2 mph 2 mph 85% 0.00 in 278 W/m2
12:35 74.2 °F 69.1 °F 30.10 in ESE 2 mph 2 mph 84% 0.00 in 339 W/m2
12:40 74.4 °F 69.6 °F 30.10 in NE 1 mph 1 mph 85% 0.00 in 295 W/m2
12:45 74.6 °F 69.4 °F 30.10 in NE 2 mph 2 mph 84% 0.00 in 357 W/m2
12:50 74.8 °F 70 °F 30.10 in ESE 2 mph 2 mph 85% 0.00 in 181 W/m2
12:55 74.9 °F 69.7 °F 30.09 in East 2 mph 2 mph 84% 0.00 in 181 W/m2
13:00 74.9 °F 69.7 °F 30.09 in NE 1 mph 2 mph 84% 0.00 in 125 W/m2
13:05 74.9 °F 69.7 °F 30.09 in East 2 mph 2 mph 84% 0.00 in 91 W/m2
13:10 75 °F 69.8 °F 30.09 in ESE 1 mph 1 mph 84% 0.00 in 105 W/m2
13:15 74.9 °F 69.7 °F 30.08 in Calm   1 mph 84% 0.14 in 104 W/m2
13:20 75 °F 69.8 °F 30.08 in Calm     84% 0.16 in 90 W/m2
13:30 74.9 °F 70.4 °F 30.08 in ENE 1 mph 1 mph 86% 0.13 in 109 W/m2
13:35 74.8 °F 70.3 °F 30.07 in ENE 1 mph 1 mph 86% 0.06 in 142 W/m2
13:40 74.6 °F 70.5 °F 30.07 in East 1 mph 1 mph 87% 0.04 in 207 W/m2
13:45 74.6 °F 70.5 °F 30.07 in NE 1 mph 1 mph 87% 0.00 in 297 W/m2
13:50 74.7 °F 70.9 °F 30.06 in ENE 1 mph 1 mph 88% 0.00 in 443 W/m2
13:55 75.4 °F 72.3 °F 30.07 in SSE 1 mph 1 mph 90% 0.00 in 967 W/m2
14:00 75.7 °F 71.9 °F 30.07 in NE 2 mph 2 mph 88% 0.00 in 497 W/m2
14:05 75.6 °F 71.8 °F 30.07 in NE 2 mph 2 mph 88% 0.00 in 306 W/m2
14:10 75.7 °F 71.6 °F 30.07 in East 2 mph 2 mph 87% 0.00 in 172 W/m2
14:15 75.7 °F 71.6 °F 30.07 in North 1 mph 2 mph 87% 0.00 in 153 W/m2
14:20 75.6 °F 71.5 °F 30.07 in NW 1 mph 3 mph 87% 0.00 in 167 W/m2
14:25 75.5 °F 71 °F 30.07 in NW 2 mph 3 mph 86% 0.00 in 149 W/m2
14:30 75.3 °F 70.8 °F 30.07 in ENE 2 mph 2 mph 86% 0.00 in 267 W/m2
14:35 75.1 °F 70.6 °F 30.07 in NNE 2 mph 3 mph 86% 0.00 in 381 W/m2
14:40 75 °F 70.5 °F 30.07 in East 2 mph 2 mph 86% 0.00 in 276 W/m2
14:45 75 °F 70.5 °F 30.06 in ENE 2 mph 2 mph 86% 0.00 in 336 W/m2
14:50 74.9 °F 70.4 °F 30.06 in NE 2 mph 2 mph 86% 0.00 in 589 W/m2
14:55 75 °F 70.5 °F 30.06 in East 3 mph 3 mph 86% 0.00 in 306 W/m2
15:00 75.1 °F 70.6 °F 30.06 in East 3 mph 3 mph 86% 0.00 in 237 W/m2
15:05 75.1 °F 70.3 °F 30.06 in ENE 2 mph 3 mph 85% 0.00 in 225 W/m2
15:10 75.1 °F 70.3 °F 30.05 in East 2 mph 4 mph 85% 0.00 in 503 W/m2
15:15 75.1 °F 70.3 °F 30.05 in NNE 3 mph 4 mph 85% 0.00 in 610 W/m2
15:20 75.3 °F 70.5 °F 30.05 in East 3 mph 3 mph 85% 0.00 in 464 W/m2
15:25 75.4 °F 70.6 °F 30.05 in ENE 3 mph 3 mph 85% 0.00 in 462 W/m2
15:30 75.5 °F 70.7 °F 30.05 in NNE 2 mph 4 mph 85% 0.00 in 360 W/m2
15:35 75.6 °F 70.4 °F 30.05 in NNE 2 mph 4 mph 84% 0.00 in 478 W/m2
15:40 75.8 °F 70.6 °F 30.05 in NE 2 mph 4 mph 84% 0.00 in 744 W/m2
15:45 76.1 °F 70.9 °F 30.05 in East 2 mph 4 mph 84% 0.00 in 476 W/m2
15:50 76.2 °F 70.7 °F 30.05 in East 2 mph 4 mph 83% 0.00 in 427 W/m2
15:55 76.2 °F 70.3 °F 30.05 in NNE 3 mph 4 mph 82% 0.00 in 489 W/m2
16:00 76.3 °F 70.4 °F 30.05 in ENE 3 mph 3 mph 82% 0.00 in 772 W/m2
16:05 76.5 °F 70.6 °F 30.05 in NNE 3 mph 3 mph 82% 0.00 in 650 W/m2
16:10 76.6 °F 70.7 °F 30.04 in ESE 3 mph 6 mph 82% 0.00 in 589 W/m2
16:15 76.7 °F 70.8 °F 30.04 in ENE 3 mph 6 mph 82% 0.00 in 585 W/m2
16:20 76.8 °F 70.9 °F 30.04 in NNE 3 mph 3 mph 82% 0.00 in 584 W/m2
16:25 76.8 °F 70.5 °F 30.04 in NNE 3 mph 5 mph 81% 0.00 in 427 W/m2
16:30 76.8 °F 70.5 °F 30.04 in SE 3 mph 3 mph 81% 0.00 in 587 W/m2
16:35 76.8 °F 70.5 °F 30.04 in NE 3 mph 3 mph 81% 0.00 in 374 W/m2
16:40 76.9 °F 70.3 °F 30.04 in NE 3 mph 3 mph 80% 0.00 in 207 W/m2
16:45 76.7 °F 70.1 °F 30.04 in NNE 3 mph 3 mph 80% 0.00 in 174 W/m2
16:50 76.7 °F 70.4 °F 30.04 in NNE 2 mph 3 mph 81% 0.00 in 352 W/m2
16:55 76.5 °F 69.9 °F 30.04 in NE 3 mph 3 mph 80% 0.00 in 350 W/m2
17:00 76.5 °F 70.2 °F 30.03 in ESE 3 mph 3 mph 81% 0.00 in 659 W/m2
17:05 76.7 °F 70.8 °F 30.03 in ENE 3 mph 5 mph 82% 0.00 in 531 W/m2
17:10 76.8 °F 70.5 °F 30.03 in NNE 3 mph 4 mph 81% 0.00 in 573 W/m2
17:15 76.9 °F 70.3 °F 30.03 in East 3 mph 4 mph 80% 0.00 in 494 W/m2
Sand Point, Michigan, USA
Compliments of Weather Underground - 2 mb